Date String (YYYY-MM-DD hh:mm:ss) UTC,Instrument flags,Ambient pressure (hPa),Sample flow (lpm),Bypass flow (lpm),Sample temperature (°C),Ambient temperature (°C),ASC tube jacket temperature (°C),LED temperature (°C),Box temperature (°C),Sample RH (%),Span deviation,Mass concentration (μg/m³),Mass concentration (μg/m³),Mass concentration (μg/m³)
DateTimeUTC,F1_M11,P_M11,Q1_M11,Q2_M11,T1_M11,T2_M11,T3_M11,T4_M11,T5_M11,U1_M11,ZSPAN_M11,X0_M11,X2_M11,X1_M11
2022-11-22 09:00:00,,0828.5,5.01,0.00,22.6,21.1,00.0,31.5,24.3,09.4,0000.0,0011.92,0006.33,0005.74
2022-11-22 09:01:00,,0828.4,5.01,0.00,22.6,21.1,00.0,31.5,24.2,09.4,0000.0,0011.99,0006.31,0005.71
2022-11-22 09:02:00,,0828.3,4.99,0.00,22.6,21.1,00.0,31.5,24.3,09.4,0000.0,0012.06,0006.28,0005.68
2022-11-22 09:03:00,,0828.4,4.99,0.00,22.5,21.1,00.0,31.5,24.4,09.4,0000.0,0011.84,0006.29,0005.68
2022-11-22 09:04:00,,0828.4,5.02,0.00,22.5,21.1,00.0,31.5,24.4,09.4,0000.0,0011.34,0006.28,0005.67
2022-11-22 09:05:00,,0828.5,5.00,0.00,22.5,21.1,00.0,31.5,24.4,09.4,0000.0,0011.64,0006.30,0005.68
2022-11-22 09:06:00,,0828.5,4.99,0.00,22.5,21.1,00.0,31.5,24.3,09.4,0000.0,0011.72,0006.31,0005.67
2022-11-22 09:07:00,,0828.4,4.99,0.00,22.5,21.1,00.0,31.5,24.2,09.4,0000.0,0011.59,0006.28,0005.66
2022-11-22 09:08:00,,0828.4,5.00,0.00,22.5,21.0,00.0,31.5,24.2,09.4,0000.0,0011.62,0006.30,0005.67
2022-11-22 09:09:00,,0828.3,5.01,0.00,22.5,21.0,00.0,31.5,24.3,09.4,0000.0,0011.58,0006.31,0005.70
2022-11-22 09:10:00,,0828.4,5.01,0.00,22.5,21.1,00.0,31.5,24.3,09.5,0000.0,0011.55,0006.35,0005.73
2022-11-22 09:11:00,,0828.3,4.99,0.00,22.5,21.0,00.0,31.5,24.2,09.5,0000.0,0011.34,0006.35,0005.75
2022-11-22 09:12:00,,0828.5,4.99,0.00,22.5,21.0,00.0,31.5,24.2,09.5,0000.0,0011.35,0006.38,0005.77
2022-11-22 09:13:00,,0828.5,5.00,0.00,22.4,21.0,00.0,31.4,24.1,09.5,0000.0,0011.48,0006.47,0005.80
2022-11-22 09:14:00,,0828.4,5.00,0.00,22.4,21.0,00.0,31.4,24.1,09.5,0000.0,0011.47,0006.48,0005.83
2022-11-22 09:15:00,,0828.4,5.00,0.00,22.4,21.0,00.0,31.4,24.1,09.4,0000.0,0011.16,0006.48,0005.85
2022-11-22 09:16:00,,0828.4,5.01,0.00,22.4,20.9,00.0,31.4,24.0,09.4,0000.0,0010.84,0006.50,0005.87
2022-11-22 09:17:00,,0828.4,5.00,0.00,22.4,20.9,00.0,31.4,24.0,09.5,0001.0,0010.87,0006.52,0005.90
2022-11-22 09:18:00,,0828.4,4.99,0.00,22.4,20.9,00.0,31.4,24.1,09.5,0002.9,0010.80,0006.52,0005.93
2022-11-22 09:19:00,,0828.5,4.99,0.00,22.4,20.9,00.0,31.4,24.0,09.5,0000.0,0011.00,0006.52,0005.95
2022-11-22 09:20:00,,0828.5,5.00,0.00,22.4,20.9,00.0,31.4,24.0,09.5,0000.0,0011.09,0006.55,0005.96
2022-11-22 09:21:00,,0828.5,5.00,0.00,22.3,20.9,00.0,31.4,24.0,09.5,0000.0,0011.14,0006.57,0005.96
2022-11-22 09:22:00,,0828.5,5.01,0.00,22.3,20.9,00.0,31.4,24.0,09.5,0000.0,0011.48,0006.59,0005.97
2022-11-22 09:23:00,,0828.5,5.00,0.00,22.3,20.8,00.0,31.4,23.9,09.6,0000.0,0012.02,0006.58,0006.00
2022-11-22 09:24:00,,0828.4,5.01,0.00,22.3,20.8,00.0,31.4,23.9,09.6,0000.0,0012.06,0006.56,0006.01
2022-11-22 09:25:00,,0828.4,5.02,0.00,22.3,20.8,00.0,31.3,24.0,09.5,0000.0,0012.51,0006.57,0006.02
2022-11-22 09:26:00,,0828.4,5.00,0.00,22.3,20.8,00.0,31.3,24.0,09.5,0000.0,0012.61,0006.61,0006.04
2022-11-22 09:27:00,,0828.5,5.00,0.00,22.3,20.8,00.0,31.3,24.0,09.5,0000.0,0012.48,0006.60,0006.04
2022-11-22 09:28:00,,0828.4,5.00,0.00,22.3,20.8,00.0,31.3,24.0,09.5,0000.0,0013.33,0006.60,0006.05
2022-11-22 09:29:00,,0828.4,5.01,0.00,22.3,20.8,00.0,31.3,23.9,09.5,0000.0,0013.92,0006.66,0006.07
2022-11-22 09:30:00,,0828.4,5.00,0.00,22.3,20.8,00.0,31.3,23.9,09.5,0000.0,0013.70,0006.65,0006.07
2022-11-22 09:31:00,,0828.4,5.01,0.00,22.3,20.8,00.0,31.3,24.0,09.6,0000.0,0014.34,0006.63,0006.05
2022-11-22 09:32:00,,0828.4,5.00,0.00,22.3,20.8,00.0,31.3,23.9,09.6,0000.0,0014.43,0006.64,0006.06
2022-11-22 09:33:00,,0828.5,4.99,0.00,22.2,20.8,00.0,31.3,23.9,09.6,0000.0,0014.23,0006.63,0006.07
2022-11-22 09:34:00,,0828.5,4.99,0.00,22.2,20.8,00.0,31.3,23.9,09.6,0000.0,0013.53,0006.63,0006.05
2022-11-22 09:35:00,,0828.5,5.00,0.00,22.2,20.8,00.0,31.3,23.9,09.6,0000.0,0013.59,0006.63,0006.05
2022-11-22 09:36:00,,0828.5,5.00,0.00,22.2,20.7,00.0,31.3,23.9,09.6,0000.0,0013.29,0006.61,0006.06
2022-11-22 09:37:00,,0828.5,4.99,0.00,22.2,20.7,00.0,31.2,23.8,09.6,0000.0,0013.66,0006.58,0006.06
2022-11-22 09:38:00,,0828.4,5.00,0.00,22.2,20.7,00.0,31.2,23.8,09.6,0000.0,0013.51,0006.60,0006.08
2022-11-22 09:39:00,,0828.4,5.00,0.00,22.2,20.7,00.0,31.2,23.8,09.6,0000.0,0012.59,0006.60,0006.08
2022-11-22 09:40:00,,0828.5,5.00,0.00,22.2,20.7,00.0,31.2,23.8,09.6,0000.0,0012.24,0006.60,0006.07
2022-11-22 09:41:00,,0828.5,5.00,0.00,22.2,20.7,00.0,31.2,23.8,09.6,0000.0,0012.26,0006.59,0006.07
2022-11-22 09:42:00,,0828.5,5.00,0.00,22.2,20.7,00.0,31.2,23.8,09.6,0000.0,0011.82,0006.61,0006.09
2022-11-22 09:43:00,,0828.5,5.00,0.00,22.2,20.7,00.0,31.2,23.9,09.6,0000.0,0011.48,0006.60,0006.10
2022-11-22 09:44:00,,0828.5,4.99,0.00,22.2,20.7,00.0,31.2,23.9,09.6,0000.0,0011.35,0006.58,0006.10
2022-11-22 09:45:00,,0828.7,4.99,0.00,22.2,20.7,00.0,31.2,24.0,09.6,0000.0,0011.95,0006.58,0006.10
2022-11-22 09:46:00,,0828.6,5.00,0.00,22.2,20.7,00.0,31.2,23.9,09.6,0000.0,0012.34,0006.59,0006.11
2022-11-22 09:47:00,,0828.5,5.00,0.00,22.2,20.7,00.0,31.2,23.9,09.6,0000.0,0012.52,0006.60,0006.12
2022-11-22 09:48:00,,0828.4,5.01,0.00,22.2,20.8,00.0,31.2,23.9,09.6,0000.0,0012.46,0006.58,0006.10
2022-11-22 09:49:00,,0828.5,5.00,0.00,22.2,20.8,00.0,31.2,24.0,09.6,0000.0,0012.52,0006.57,0006.11
2022-11-22 09:50:00,,0828.5,4.99,0.00,22.2,20.8,00.0,31.2,24.0,09.6,0000.0,0012.55,0006.57,0006.11
2022-11-22 09:51:00,,0828.5,4.99,0.00,22.2,20.8,00.0,31.2,23.9,09.6,0000.0,0012.46,0006.56,0006.12
2022-11-22 09:52:00,,0828.5,5.00,0.00,22.2,20.8,00.0,31.2,23.9,09.6,0000.0,0012.42,0006.58,0006.13
2022-11-22 09:53:00,,0828.5,5.01,0.00,22.2,20.8,00.0,31.1,23.9,09.6,0000.0,0012.40,0006.59,0006.14
2022-11-22 09:54:00,,0828.5,5.01,0.00,22.2,20.8,00.0,31.2,23.9,09.6,0000.0,0012.78,0006.60,0006.14
2022-11-22 09:55:00,,0828.4,5.00,0.00,22.2,20.8,00.0,31.1,23.9,09.6,0000.0,0012.91,0006.60,0006.14
2022-11-22 09:56:00,,0828.5,5.00,0.00,22.2,20.8,00.0,31.1,23.9,09.6,0004.5,0012.38,0006.64,0006.14
2022-11-22 09:57:00,,0828.5,5.00,0.00,22.2,20.8,00.0,31.1,24.0,09.6,0005.7,0011.90,0006.62,0006.14
2022-11-22 09:58:00,,0828.5,5.01,0.00,22.2,20.8,00.0,31.1,24.0,09.6,0005.6,0011.63,0006.62,0006.15
2022-11-22 09:59:00,,0828.5,5.00,0.00,22.2,20.8,00.0,31.1,24.0,09.6,0005.3,0011.16,0006.64,0006.15
